Year,Month,Day,Hour,Minute,Value (Times are PST for temperature in C)
2019,05,26,00,01,10.10
2019,05,26,00,02,10.10
2019,05,26,00,03,10.10
2019,05,26,00,04,10.10
2019,05,26,00,06,10.10
2019,05,26,00,07,10.10
2019,05,26,00,09,10.10
2019,05,26,00,10,10.10
2019,05,26,00,11,10.10
2019,05,26,00,12,10.10
2019,05,26,00,13,10.10
2019,05,26,00,14,10.10
2019,05,26,00,15,10.10
2019,05,26,00,16,10.10
2019,05,26,00,17,10.10
2019,05,26,00,18,10.10
2019,05,26,00,19,10.10
2019,05,26,00,20,9.90
2019,05,26,00,21,9.90
2019,05,26,00,22,9.90
2019,05,26,00,23,9.90
2019,05,26,00,24,9.90
2019,05,26,00,25,9.90
2019,05,26,00,26,10.10
2019,05,26,00,27,10.10
2019,05,26,00,28,10.10
2019,05,26,00,29,10.10
2019,05,26,00,30,9.90
2019,05,26,00,32,9.90
2019,05,26,00,33,9.90
2019,05,26,00,34,9.90
2019,05,26,00,35,9.90
2019,05,26,00,36,9.90
2019,05,26,00,37,9.90
2019,05,26,00,38,9.90
2019,05,26,00,39,9.90
2019,05,26,00,40,9.90
2019,05,26,00,41,9.90
2019,05,26,00,42,9.90
2019,05,26,00,43,9.90
2019,05,26,00,44,9.90
2019,05,26,00,45,9.90
2019,05,26,00,46,9.90
2019,05,26,00,47,9.90
2019,05,26,00,48,9.90
2019,05,26,00,49,9.90
2019,05,26,00,50,9.90
2019,05,26,00,51,9.90
2019,05,26,00,52,9.90
2019,05,26,00,53,9.90
2019,05,26,00,54,9.90
2019,05,26,00,55,9.90
2019,05,26,00,56,9.90
2019,05,26,00,57,9.90
2019,05,26,00,58,9.90
2019,05,26,00,59,9.90
2019,05,26,01,00,9.90
2019,05,26,01,01,9.90
2019,05,26,01,02,9.90
2019,05,26,01,03,10.10
2019,05,26,01,04,10.10
2019,05,26,01,05,10.10
2019,05,26,01,06,10.10
2019,05,26,01,07,10.10
2019,05,26,01,08,10.10
2019,05,26,01,09,10.10
2019,05,26,01,10,10.10
2019,05,26,01,11,10.10
2019,05,26,01,12,10.10
2019,05,26,01,13,10.10
2019,05,26,01,14,10.10
2019,05,26,01,15,10.10
2019,05,26,01,16,10.20
2019,05,26,01,17,10.20
2019,05,26,01,18,10.20
2019,05,26,01,19,10.20
2019,05,26,01,20,10.20
2019,05,26,01,21,10.20
2019,05,26,01,22,10.30
2019,05,26,01,23,10.30
2019,05,26,01,24,10.30
2019,05,26,01,25,10.30
2019,05,26,01,26,10.30
2019,05,26,01,27,10.30
2019,05,26,01,28,10.30
2019,05,26,01,29,10.30
2019,05,26,01,30,10.30
2019,05,26,01,31,10.30
2019,05,26,01,32,10.30
2019,05,26,01,33,10.30
2019,05,26,01,34,10.30
2019,05,26,01,35,10.30
2019,05,26,01,36,10.30
2019,05,26,01,37,10.30
2019,05,26,01,38,10.30
2019,05,26,01,39,10.30
2019,05,26,01,40,10.30
2019,05,26,01,41,10.20
2019,05,26,01,42,10.20
2019,05,26,01,43,10.20
2019,05,26,01,44,10.20
2019,05,26,01,45,10.10
2019,05,26,01,46,10.10
2019,05,26,01,47,10.10
2019,05,26,01,48,10.10
2019,05,26,01,49,10.10
2019,05,26,01,50,10.10
2019,05,26,01,51,10.10
2019,05,26,01,52,10.10
2019,05,26,01,53,10.10
2019,05,26,01,54,10.10
2019,05,26,01,55,10.10
2019,05,26,01,56,10.20
2019,05,26,01,57,10.20
2019,05,26,01,58,10.20
2019,05,26,01,59,10.20
2019,05,26,02,00,10.20
2019,05,26,02,01,10.20
2019,05,26,02,02,10.20
2019,05,26,02,03,10.20
2019,05,26,02,04,10.20
2019,05,26,02,05,10.20
2019,05,26,02,06,10.20
2019,05,26,02,07,10.20
2019,05,26,02,08,10.20
2019,05,26,02,09,10.10
2019,05,26,02,10,10.10
2019,05,26,02,11,10.10
2019,05,26,02,12,10.10
2019,05,26,02,13,10.10
2019,05,26,02,14,10.10
2019,05,26,02,15,10.10
2019,05,26,02,16,10.10
2019,05,26,02,17,10.10
2019,05,26,02,18,10.10
2019,05,26,02,19,10.10
2019,05,26,02,20,9.90
2019,05,26,02,21,9.90
2019,05,26,02,22,9.90
2019,05,26,02,23,9.90
2019,05,26,02,24,9.90
2019,05,26,02,25,9.90
2019,05,26,02,26,9.90
2019,05,26,02,27,9.90
2019,05,26,02,28,9.90
2019,05,26,02,29,9.90
2019,05,26,02,30,9.90
2019,05,26,02,31,9.90
2019,05,26,02,32,9.90
2019,05,26,02,33,9.80
2019,05,26,02,34,9.80
2019,05,26,02,35,9.80
2019,05,26,02,36,9.80
2019,05,26,02,37,9.80
2019,05,26,02,38,9.90
2019,05,26,02,39,9.90
2019,05,26,02,40,9.90
2019,05,26,02,41,9.90
2019,05,26,02,42,9.90
2019,05,26,02,43,9.90
2019,05,26,02,44,9.90
2019,05,26,02,45,9.90
2019,05,26,02,46,9.90
2019,05,26,02,47,9.90
2019,05,26,02,48,9.90
2019,05,26,02,49,9.90
2019,05,26,02,50,9.90
2019,05,26,02,51,9.90
2019,05,26,02,52,9.90
2019,05,26,02,53,9.90
2019,05,26,02,54,9.90
2019,05,26,02,56,9.90
2019,05,26,02,57,9.90
2019,05,26,02,59,9.90
2019,05,26,03,01,9.90
2019,05,26,03,02,9.90
2019,05,26,03,03,9.90
2019,05,26,03,04,9.90
2019,05,26,03,06,9.90
2019,05,26,03,07,9.90
2019,05,26,03,08,9.90
2019,05,26,03,09,9.90
2019,05,26,03,11,9.90
2019,05,26,03,12,9.90
2019,05,26,03,13,9.90
2019,05,26,03,14,9.90
2019,05,26,03,16,9.90
2019,05,26,03,17,9.90
2019,05,26,03,18,9.90
2019,05,26,03,19,9.90
2019,05,26,03,21,9.90
2019,05,26,03,22,9.90
2019,05,26,03,23,9.90
2019,05,26,03,24,9.90
2019,05,26,03,26,9.90
2019,05,26,03,27,9.90
2019,05,26,03,28,9.90
2019,05,26,03,29,9.90
2019,05,26,03,31,9.90
2019,05,26,03,32,9.90
2019,05,26,03,33,9.90
2019,05,26,03,34,9.90
2019,05,26,03,36,9.90
2019,05,26,03,37,9.90
2019,05,26,03,38,9.90
2019,05,26,03,39,9.90
2019,05,26,03,41,9.90
2019,05,26,03,42,9.90
2019,05,26,03,43,9.90
2019,05,26,03,44,9.90
2019,05,26,03,46,9.80
2019,05,26,03,47,9.80
2019,05,26,03,48,9.80
2019,05,26,03,49,9.80
2019,05,26,03,51,9.80
2019,05,26,03,52,9.80
2019,05,26,03,53,9.80
2019,05,26,03,54,9.80
2019,05,26,03,56,9.80
2019,05,26,03,57,9.80
2019,05,26,03,58,9.80
2019,05,26,03,59,9.80
2019,05,26,04,01,9.80
2019,05,26,04,02,9.80
2019,05,26,04,03,9.80
2019,05,26,04,04,9.80
2019,05,26,04,06,9.80
2019,05,26,04,07,9.80
2019,05,26,04,08,9.80
2019,05,26,04,09,9.80
2019,05,26,04,11,9.80
2019,05,26,04,12,9.80
2019,05,26,04,13,9.80
2019,05,26,04,14,9.80
2019,05,26,04,16,9.80
2019,05,26,04,17,9.80
2019,05,26,04,18,9.80
2019,05,26,04,19,9.80
2019,05,26,04,21,9.80
2019,05,26,04,22,9.80
2019,05,26,04,23,9.80
2019,05,26,04,24,9.80
2019,05,26,04,25,9.80
2019,05,26,04,26,9.80
2019,05,26,04,27,9.80
2019,05,26,04,28,9.80
2019,05,26,04,29,9.80
2019,05,26,04,30,9.80
2019,05,26,04,31,9.80
2019,05,26,04,32,9.80
2019,05,26,04,33,9.70
2019,05,26,04,34,9.70
2019,05,26,04,36,9.70
2019,05,26,04,37,9.70
2019,05,26,04,38,9.70
2019,05,26,04,39,9.70
2019,05,26,04,40,9.70
2019,05,26,04,41,9.70
2019,05,26,04,42,9.70
2019,05,26,04,43,9.70
2019,05,26,04,44,9.70
2019,05,26,04,45,9.70
2019,05,26,04,46,9.70
2019,05,26,04,47,9.70
2019,05,26,04,48,9.60
2019,05,26,04,49,9.60
2019,05,26,04,50,9.60
2019,05,26,04,51,9.60
2019,05,26,04,52,9.60
2019,05,26,04,53,9.50
2019,05,26,04,54,9.50
2019,05,26,04,55,9.50
2019,05,26,04,56,9.40
2019,05,26,04,57,9.40
2019,05,26,04,58,9.40
2019,05,26,04,59,9.40
2019,05,26,05,00,9.30
2019,05,26,05,01,9.30
2019,05,26,05,02,9.30
2019,05,26,05,03,9.20
2019,05,26,05,04,9.20
2019,05,26,05,05,9.20
2019,05,26,05,06,9.20
2019,05,26,05,07,9.20
2019,05,26,05,08,9.20
2019,05,26,05,09,9.20
2019,05,26,05,10,9.20
2019,05,26,05,11,9.20
2019,05,26,05,12,9.10
2019,05,26,05,13,9.10
2019,05,26,05,14,9.10
2019,05,26,05,15,9.10
2019,05,26,05,16,9.10
2019,05,26,05,17,9.00
2019,05,26,05,18,9.00
2019,05,26,05,19,9.00
2019,05,26,05,20,9.00
2019,05,26,05,21,9.00
2019,05,26,05,22,8.90
2019,05,26,05,23,8.90
2019,05,26,05,24,8.90
2019,05,26,05,25,8.90
2019,05,26,05,26,8.90
2019,05,26,05,27,8.90
2019,05,26,05,28,8.80
2019,05,26,05,29,8.80
2019,05,26,05,30,8.80
2019,05,26,05,31,8.80
2019,05,26,05,32,8.80
2019,05,26,05,33,8.80
2019,05,26,05,34,8.80
2019,05,26,05,35,8.80
2019,05,26,05,36,8.70
2019,05,26,05,37,8.70
2019,05,26,05,38,8.70
2019,05,26,05,39,8.70
2019,05,26,05,40,8.70
2019,05,26,05,41,8.70
2019,05,26,05,42,8.70
2019,05,26,05,43,8.70
2019,05,26,05,44,8.70
2019,05,26,05,45,8.70
2019,05,26,05,46,8.70
2019,05,26,05,47,8.70
2019,05,26,05,48,8.70
2019,05,26,05,49,8.70
2019,05,26,05,50,8.70
2019,05,26,05,51,8.70
2019,05,26,05,52,8.70
2019,05,26,05,53,8.70
2019,05,26,05,54,8.70
2019,05,26,05,55,8.70
2019,05,26,05,56,8.70
2019,05,26,05,57,8.70
2019,05,26,05,58,8.70
2019,05,26,05,59,8.70
2019,05,26,06,00,8.70
2019,05,26,06,01,8.70
2019,05,26,06,02,8.70
2019,05,26,06,03,8.70
2019,05,26,06,04,8.80
2019,05,26,06,05,8.80
2019,05,26,06,06,8.80
2019,05,26,06,07,8.80
2019,05,26,06,08,8.80
2019,05,26,06,09,8.80
2019,05,26,06,10,8.80
2019,05,26,06,11,8.80
2019,05,26,06,12,8.80
2019,05,26,06,13,8.90
2019,05,26,06,14,8.90
2019,05,26,06,15,8.90
2019,05,26,06,16,8.90
2019,05,26,06,17,8.90
2019,05,26,06,18,8.90
2019,05,26,06,19,8.90
2019,05,26,06,20,9.00
2019,05,26,06,21,9.00
2019,05,26,06,22,9.00
2019,05,26,06,23,9.00
2019,05,26,06,24,9.10
2019,05,26,06,25,9.10
2019,05,26,06,26,9.10
2019,05,26,06,27,9.20
2019,05,26,06,28,9.20
2019,05,26,06,29,9.20
2019,05,26,06,30,9.20
2019,05,26,06,32,9.20
2019,05,26,06,33,9.20
2019,05,26,06,34,9.20
2019,05,26,06,35,9.30
2019,05,26,06,36,9.30
2019,05,26,06,37,9.30
2019,05,26,06,38,9.40
2019,05,26,06,39,9.40
2019,05,26,06,40,9.40
2019,05,26,06,41,9.50
2019,05,26,06,42,9.50
2019,05,26,06,43,9.50
2019,05,26,06,44,9.60
2019,05,26,06,45,9.60
2019,05,26,06,46,9.70
2019,05,26,06,47,9.70
2019,05,26,06,48,9.70
2019,05,26,06,49,9.70
2019,05,26,06,50,9.70
2019,05,26,06,51,9.70
2019,05,26,06,52,9.80
2019,05,26,06,53,9.80
2019,05,26,06,54,9.80
2019,05,26,06,55,9.90
2019,05,26,06,56,9.90
2019,05,26,06,57,9.90
2019,05,26,06,58,9.90
2019,05,26,06,59,9.90
2019,05,26,07,00,9.90
2019,05,26,07,01,9.90
2019,05,26,07,02,9.90
2019,05,26,07,03,9.90
2019,05,26,07,04,9.90
2019,05,26,07,05,9.90
2019,05,26,07,06,9.90
2019,05,26,07,07,9.90
2019,05,26,07,08,9.90
2019,05,26,07,09,9.90
2019,05,26,07,10,9.90
2019,05,26,07,11,9.90
2019,05,26,07,12,9.90
2019,05,26,07,13,9.90
2019,05,26,07,14,9.90
2019,05,26,07,15,9.90
2019,05,26,07,17,10.10
2019,05,26,07,18,10.10
2019,05,26,07,19,10.10
2019,05,26,07,21,10.10
2019,05,26,07,22,10.10
2019,05,26,07,23,10.10
2019,05,26,07,24,10.10
2019,05,26,07,26,10.10
2019,05,26,07,27,10.20
2019,05,26,07,28,10.20
2019,05,26,07,29,10.20
2019,05,26,07,31,10.30
2019,05,26,07,32,10.30
2019,05,26,07,33,10.40
2019,05,26,07,34,10.40
2019,05,26,07,36,10.40
2019,05,26,07,37,10.40
2019,05,26,07,38,10.40
2019,05,26,07,39,10.40
2019,05,26,07,41,10.40
2019,05,26,07,42,10.40
2019,05,26,07,43,10.40
2019,05,26,07,44,10.40
2019,05,26,07,46,10.40
2019,05,26,07,47,10.60
2019,05,26,07,48,10.60
2019,05,26,07,49,10.60
2019,05,26,07,51,10.60
2019,05,26,07,52,10.60
2019,05,26,07,53,10.60
2019,05,26,07,54,10.60
2019,05,26,07,56,10.60
2019,05,26,07,57,10.60
2019,05,26,07,58,10.60
2019,05,26,07,59,10.60
2019,05,26,08,01,10.60
2019,05,26,08,02,10.60
2019,05,26,08,03,10.70
2019,05,26,08,04,10.70
2019,05,26,08,06,10.70
2019,05,26,08,07,10.70
2019,05,26,08,08,10.80
2019,05,26,08,09,10.80
2019,05,26,08,11,10.90
2019,05,26,08,12,10.90
2019,05,26,08,13,10.90
2019,05,26,08,14,11.10
2019,05,26,08,16,11.10
2019,05,26,08,17,11.10
2019,05,26,08,18,11.10
2019,05,26,08,19,11.20
2019,05,26,08,21,11.30
2019,05,26,08,22,11.40
2019,05,26,08,23,11.40
2019,05,26,08,24,11.40
2019,05,26,08,26,11.40
2019,05,26,08,27,11.60
2019,05,26,08,28,11.60
2019,05,26,08,29,11.60
2019,05,26,08,31,11.60
2019,05,26,08,32,11.60
2019,05,26,08,33,11.60
2019,05,26,08,34,11.60
2019,05,26,08,36,11.60
2019,05,26,08,37,11.60
2019,05,26,08,38,11.60
2019,05,26,08,39,11.70
2019,05,26,08,41,11.80
2019,05,26,08,42,11.80
2019,05,26,08,43,11.80
2019,05,26,08,44,11.90
2019,05,26,08,45,12.00
2019,05,26,08,46,12.10
2019,05,26,08,47,12.30
2019,05,26,08,48,12.30
2019,05,26,08,49,12.30
2019,05,26,08,50,12.40
2019,05,26,08,51,12.40
2019,05,26,08,52,12.50
2019,05,26,08,53,12.60
2019,05,26,08,54,12.60
2019,05,26,08,55,12.70
2019,05,26,08,56,12.80
2019,05,26,08,57,12.80
2019,05,26,08,58,12.80
2019,05,26,08,59,12.90
2019,05,26,09,00,13.00
2019,05,26,09,01,13.00
2019,05,26,09,02,13.10
2019,05,26,09,03,13.00
2019,05,26,09,04,13.00
2019,05,26,09,05,13.00
2019,05,26,09,06,13.00
2019,05,26,09,07,13.10
2019,05,26,09,08,13.10
2019,05,26,09,09,13.10
2019,05,26,09,10,13.20
2019,05,26,09,11,13.20
2019,05,26,09,12,13.20
2019,05,26,09,13,13.20
2019,05,26,09,14,13.20
2019,05,26,09,15,13.30
2019,05,26,09,16,13.30
2019,05,26,09,17,13.40
2019,05,26,09,18,13.50
2019,05,26,09,19,13.60
2019,05,26,09,20,13.60
2019,05,26,09,21,13.70
2019,05,26,09,22,13.70
2019,05,26,09,23,13.70
2019,05,26,09,24,13.70
2019,05,26,09,25,13.70
2019,05,26,09,26,13.70
2019,05,26,09,27,13.80
2019,05,26,09,28,13.80
2019,05,26,09,29,13.80
2019,05,26,09,30,13.80
2019,05,26,09,31,13.80
2019,05,26,09,32,13.80
2019,05,26,09,33,13.80
2019,05,26,09,34,13.90
2019,05,26,09,35,13.90
2019,05,26,09,36,13.90
2019,05,26,09,37,13.90
2019,05,26,09,38,14.00
2019,05,26,09,39,14.00
2019,05,26,09,40,14.00
2019,05,26,09,41,14.00
2019,05,26,09,42,14.00
2019,05,26,09,43,13.90
2019,05,26,09,44,13.90
2019,05,26,09,45,13.90
2019,05,26,09,46,13.90
2019,05,26,09,47,13.90
2019,05,26,09,48,13.80
2019,05,26,09,49,13.80
2019,05,26,09,50,13.80
2019,05,26,09,51,13.70
2019,05,26,09,52,13.70
2019,05,26,09,53,13.70
2019,05,26,09,54,13.70
2019,05,26,09,55,13.80
2019,05,26,09,56,13.80
2019,05,26,09,57,13.90
2019,05,26,09,58,13.90
2019,05,26,09,59,14.00
2019,05,26,10,00,14.10
2019,05,26,10,01,14.20
2019,05,26,10,02,14.20
2019,05,26,10,03,14.20
2019,05,26,10,04,14.20
2019,05,26,10,05,14.30
2019,05,26,10,06,14.50
2019,05,26,10,07,14.50
2019,05,26,10,08,14.60
2019,05,26,10,09,14.60
2019,05,26,10,10,14.70
2019,05,26,10,11,14.70
2019,05,26,10,12,14.70
2019,05,26,10,13,14.80
2019,05,26,10,14,14.80
2019,05,26,10,15,14.80
2019,05,26,10,16,14.80
2019,05,26,10,17,14.90
2019,05,26,10,18,14.90
2019,05,26,10,19,15.00
2019,05,26,10,20,15.10
2019,05,26,10,21,15.20
2019,05,26,10,22,15.30
2019,05,26,10,23,15.30
2019,05,26,10,24,15.40
2019,05,26,10,25,15.50
2019,05,26,10,26,15.60
2019,05,26,10,27,15.70
2019,05,26,10,28,15.70
2019,05,26,10,29,15.80
2019,05,26,10,30,15.80
2019,05,26,10,31,15.80
2019,05,26,10,32,15.80
2019,05,26,10,33,15.80
2019,05,26,10,34,15.80
2019,05,26,10,35,15.90
2019,05,26,10,36,15.90
2019,05,26,10,37,15.90
2019,05,26,10,38,15.90
2019,05,26,10,39,16.10
2019,05,26,10,40,16.10
2019,05,26,10,41,16.20
2019,05,26,10,42,16.20
2019,05,26,10,43,16.20
2019,05,26,10,44,16.20
2019,05,26,10,45,16.20
2019,05,26,10,46,16.30
2019,05,26,10,47,16.30
2019,05,26,10,48,16.40
2019,05,26,10,49,16.40
2019,05,26,10,50,16.40
2019,05,26,10,51,16.60
2019,05,26,10,52,16.70
2019,05,26,10,53,16.70
2019,05,26,10,54,16.70
2019,05,26,10,55,16.70
2019,05,26,10,56,16.70
2019,05,26,10,57,16.80
2019,05,26,10,58,16.80
2019,05,26,10,59,16.90
2019,05,26,11,00,16.90
2019,05,26,11,01,17.00
2019,05,26,11,02,17.10
2019,05,26,11,03,17.20
2019,05,26,11,04,17.30
2019,05,26,11,05,17.30
2019,05,26,11,06,17.30
2019,05,26,11,07,17.30
2019,05,26,11,08,17.40
2019,05,26,11,09,17.40
2019,05,26,11,10,17.40
2019,05,26,11,11,17.40
2019,05,26,11,12,17.50
2019,05,26,11,13,17.50
2019,05,26,11,14,17.40
2019,05,26,11,15,17.30
2019,05,26,11,16,17.30
2019,05,26,11,17,17.30
2019,05,26,11,18,17.30
2019,05,26,11,19,17.20
2019,05,26,11,20,17.20
2019,05,26,11,21,17.20
2019,05,26,11,22,17.10
2019,05,26,11,23,17.10
2019,05,26,11,24,17.00
2019,05,26,11,25,17.00
2019,05,26,11,26,17.00
2019,05,26,11,28,17.00
2019,05,26,11,29,16.90
2019,05,26,11,31,16.90
2019,05,26,11,32,16.80
2019,05,26,11,33,16.80
2019,05,26,11,34,16.70
2019,05,26,11,36,16.80
2019,05,26,11,37,16.80
2019,05,26,11,38,16.80
2019,05,26,11,39,16.80
2019,05,26,11,41,16.90
2019,05,26,11,42,16.90
2019,05,26,11,43,17.00
2019,05,26,11,44,17.10
2019,05,26,11,46,17.30
2019,05,26,11,47,17.30
2019,05,26,11,48,17.30
2019,05,26,11,49,17.40
2019,05,26,11,51,17.50
2019,05,26,11,52,17.50
2019,05,26,11,53,17.60
2019,05,26,11,54,17.60
2019,05,26,11,56,17.60
2019,05,26,11,57,17.60
2019,05,26,11,58,17.70
2019,05,26,11,59,17.70
2019,05,26,12,01,17.80
2019,05,26,12,02,17.70
2019,05,26,12,03,17.80
2019,05,26,12,04,17.80
2019,05,26,12,06,17.90
2019,05,26,12,07,18.10
2019,05,26,12,08,18.20
2019,05,26,12,09,18.30
2019,05,26,12,11,18.50
2019,05,26,12,12,18.60
2019,05,26,12,13,18.60
2019,05,26,12,14,18.60
2019,05,26,12,16,18.20
2019,05,26,12,17,18.10
2019,05,26,12,18,17.90
2019,05,26,12,19,17.90
2019,05,26,12,21,17.80
2019,05,26,12,22,17.80
2019,05,26,12,23,17.80
2019,05,26,12,24,17.80
2019,05,26,12,26,17.80
2019,05,26,12,27,17.80
2019,05,26,12,28,17.80
2019,05,26,12,29,17.80
2019,05,26,12,30,17.90
2019,05,26,12,32,17.90
2019,05,26,12,33,17.90
2019,05,26,12,34,17.90
2019,05,26,12,36,18.10
2019,05,26,12,37,18.20
2019,05,26,12,38,18.20
2019,05,26,12,39,18.30
2019,05,26,12,41,18.50
2019,05,26,12,42,18.30
2019,05,26,12,43,18.20
2019,05,26,12,44,17.90
2019,05,26,12,46,17.50
2019,05,26,12,47,17.30
2019,05,26,12,48,17.20
2019,05,26,12,49,17.10
2019,05,26,12,50,17.00
2019,05,26,12,51,16.90
2019,05,26,12,52,16.90
2019,05,26,12,53,17.00
2019,05,26,12,54,17.00
2019,05,26,12,55,17.10
2019,05,26,12,56,17.20
2019,05,26,12,57,17.10
2019,05,26,12,58,17.00
2019,05,26,12,59,17.00
2019,05,26,13,00,17.00
2019,05,26,13,01,17.00
2019,05,26,13,02,17.00
2019,05,26,13,03,17.00
2019,05,26,13,04,17.00
2019,05,26,13,05,17.10
2019,05,26,13,06,17.10
2019,05,26,13,07,17.00
2019,05,26,13,08,17.00
2019,05,26,13,09,16.90
2019,05,26,13,10,16.90
2019,05,26,13,11,16.90
2019,05,26,13,12,16.90
2019,05,26,13,13,16.80
2019,05,26,13,14,16.70
2019,05,26,13,15,16.70
2019,05,26,13,16,16.70
2019,05,26,13,17,16.60
2019,05,26,13,18,16.60
2019,05,26,13,19,16.40
2019,05,26,13,20,16.40
2019,05,26,13,21,16.40
2019,05,26,13,22,16.30
2019,05,26,13,23,16.30
2019,05,26,13,24,16.20
2019,05,26,13,25,16.10
2019,05,26,13,26,16.10
2019,05,26,13,27,15.90
2019,05,26,13,28,15.90
2019,05,26,13,29,15.80
2019,05,26,13,30,15.80
2019,05,26,13,31,15.80
2019,05,26,13,32,15.80
2019,05,26,13,33,15.80
2019,05,26,13,34,15.70
2019,05,26,13,35,15.70
2019,05,26,13,36,15.70
2019,05,26,13,37,15.60
2019,05,26,13,38,15.60
2019,05,26,13,39,15.60
2019,05,26,13,40,15.60
2019,05,26,13,41,15.60
2019,05,26,13,42,15.60
2019,05,26,13,43,15.60
2019,05,26,13,44,15.60
2019,05,26,13,45,15.60
2019,05,26,13,46,15.60
2019,05,26,13,47,15.60
2019,05,26,13,48,15.60
2019,05,26,13,49,15.60
2019,05,26,13,50,15.60
2019,05,26,13,51,15.70
2019,05,26,13,52,15.70
2019,05,26,13,53,15.80
2019,05,26,13,54,15.80
2019,05,26,13,55,15.80
2019,05,26,13,56,15.80
2019,05,26,13,57,15.90
2019,05,26,13,58,15.90
2019,05,26,13,59,16.10
2019,05,26,14,00,16.10
2019,05,26,14,01,16.10
2019,05,26,14,02,16.20
2019,05,26,14,03,16.20
2019,05,26,14,04,16.20
2019,05,26,14,05,16.30
2019,05,26,14,06,16.30
2019,05,26,14,07,16.30
2019,05,26,14,08,16.30
2019,05,26,14,09,16.40
2019,05,26,14,10,16.40
2019,05,26,14,11,16.40
2019,05,26,14,12,16.60
2019,05,26,14,13,16.60
2019,05,26,14,14,16.60
2019,05,26,14,15,16.70
2019,05,26,14,16,16.70
2019,05,26,14,17,16.80
2019,05,26,14,18,16.90
2019,05,26,14,19,17.10
2019,05,26,14,20,17.20
2019,05,26,14,21,17.30
2019,05,26,14,22,17.30
2019,05,26,14,23,17.50
2019,05,26,14,24,17.60
2019,05,26,14,25,17.70
2019,05,26,14,26,17.90
2019,05,26,14,27,17.90
2019,05,26,14,28,18.10
2019,05,26,14,29,18.20
2019,05,26,14,30,18.20
2019,05,26,14,31,18.30
2019,05,26,14,32,18.30
2019,05,26,14,33,18.40
2019,05,26,14,34,18.40
2019,05,26,14,35,18.40
2019,05,26,14,36,18.50
2019,05,26,14,37,18.60
2019,05,26,14,38,18.60
2019,05,26,14,39,18.60
2019,05,26,14,40,18.60
2019,05,26,14,41,18.60
2019,05,26,14,42,18.60
2019,05,26,14,43,18.50
2019,05,26,14,44,18.40
2019,05,26,14,45,18.40
2019,05,26,14,46,18.30
2019,05,26,14,47,18.20
2019,05,26,14,48,18.20
2019,05,26,14,49,18.20
2019,05,26,14,50,18.20
2019,05,26,14,51,18.20
2019,05,26,14,52,18.10
2019,05,26,14,53,18.10
2019,05,26,14,54,18.10
2019,05,26,14,55,18.10
2019,05,26,14,56,18.10
2019,05,26,14,57,18.10
2019,05,26,14,58,18.20
2019,05,26,14,59,18.20
2019,05,26,15,00,18.20
2019,05,26,15,01,18.20
2019,05,26,15,02,18.20
2019,05,26,15,03,18.20
2019,05,26,15,04,18.10
2019,05,26,15,05,18.10
2019,05,26,15,06,18.10
2019,05,26,15,07,18.10
2019,05,26,15,08,18.10
2019,05,26,15,09,18.10
2019,05,26,15,10,17.90
2019,05,26,15,11,17.90
2019,05,26,15,12,17.90
2019,05,26,15,13,17.80
2019,05,26,15,14,17.80
2019,05,26,15,15,17.80
2019,05,26,15,16,17.80
2019,05,26,15,17,17.90
2019,05,26,15,18,17.90
2019,05,26,15,19,18.10
2019,05,26,15,20,18.20
2019,05,26,15,21,18.20
2019,05,26,15,22,18.40
2019,05,26,15,23,18.60
2019,05,26,15,24,18.70
2019,05,26,15,25,18.90
2019,05,26,15,26,18.90
2019,05,26,15,27,19.10
2019,05,26,15,28,19.20
2019,05,26,15,29,19.40
2019,05,26,15,31,19.70
2019,05,26,15,32,19.90
2019,05,26,15,33,19.90
2019,05,26,15,34,20.20
2019,05,26,15,36,20.40
2019,05,26,15,37,20.50
2019,05,26,15,38,20.60
2019,05,26,15,39,20.60
2019,05,26,15,41,20.70
2019,05,26,15,42,20.70
2019,05,26,15,43,20.70
2019,05,26,15,44,20.70
2019,05,26,15,46,20.70
2019,05,26,15,47,20.70
2019,05,26,15,48,20.70
2019,05,26,15,49,20.60
2019,05,26,15,51,20.50
2019,05,26,15,52,20.40
2019,05,26,15,53,20.30
2019,05,26,15,54,20.20
2019,05,26,15,56,20.10
2019,05,26,15,57,19.90
2019,05,26,15,58,19.70
2019,05,26,15,59,19.50
2019,05,26,16,01,19.20
2019,05,26,16,02,19.10
2019,05,26,16,03,19.10
2019,05,26,16,04,19.10
2019,05,26,16,06,18.90
2019,05,26,16,07,18.80
2019,05,26,16,08,18.70
2019,05,26,16,09,18.60
2019,05,26,16,11,18.50
2019,05,26,16,12,18.40
2019,05,26,16,13,18.30
2019,05,26,16,14,18.30
2019,05,26,16,16,18.20
2019,05,26,16,17,18.20
2019,05,26,16,18,18.10
2019,05,26,16,19,18.10
2019,05,26,16,21,17.90
2019,05,26,16,22,17.90
2019,05,26,16,23,17.90
2019,05,26,16,24,17.90
2019,05,26,16,26,17.80
2019,05,26,16,27,17.70
2019,05,26,16,28,17.70
2019,05,26,16,29,17.80
2019,05,26,16,31,17.90
2019,05,26,16,32,17.90
2019,05,26,16,33,17.90
2019,05,26,16,34,17.90
2019,05,26,16,36,18.10
2019,05,26,16,37,18.10
2019,05,26,16,38,18.20
2019,05,26,16,39,18.20
2019,05,26,16,41,18.40
2019,05,26,16,42,18.40
2019,05,26,16,43,18.50
2019,05,26,16,44,18.60
2019,05,26,16,46,18.70
2019,05,26,16,47,18.70
2019,05,26,16,48,18.80
2019,05,26,16,49,18.90
2019,05,26,16,51,18.90
2019,05,26,16,52,18.90
2019,05,26,16,53,19.10
2019,05,26,16,54,19.10
2019,05,26,16,55,19.10
2019,05,26,16,56,19.10
2019,05,26,16,57,18.90
2019,05,26,16,58,18.90
2019,05,26,16,59,18.90
2019,05,26,17,00,18.90
2019,05,26,17,01,18.90
2019,05,26,17,02,18.90
2019,05,26,17,03,18.90
2019,05,26,17,04,18.90
2019,05,26,17,06,18.90
2019,05,26,17,07,18.80
2019,05,26,17,08,18.70
2019,05,26,17,09,18.70
2019,05,26,17,10,18.60
2019,05,26,17,11,18.50
2019,05,26,17,12,18.50
2019,05,26,17,13,18.50
2019,05,26,17,14,18.50
2019,05,26,17,15,18.50
2019,05,26,17,16,18.60
2019,05,26,17,17,18.70
2019,05,26,17,18,18.70
2019,05,26,17,19,18.90
2019,05,26,17,20,18.90
2019,05,26,17,21,19.10
2019,05,26,17,22,19.10
2019,05,26,17,23,19.20
2019,05,26,17,24,19.30
2019,05,26,17,25,19.50
2019,05,26,17,26,19.60
2019,05,26,17,27,19.70
2019,05,26,17,28,19.80
2019,05,26,17,29,19.90
2019,05,26,17,30,19.90
2019,05,26,17,31,19.90
2019,05,26,17,32,20.10
2019,05,26,17,33,20.10
2019,05,26,17,34,20.20
2019,05,26,17,35,20.20
2019,05,26,17,36,20.20
2019,05,26,17,37,20.30
2019,05,26,17,38,20.30
2019,05,26,17,39,20.40
2019,05,26,17,40,20.40
2019,05,26,17,41,20.40
2019,05,26,17,42,20.40
2019,05,26,17,43,20.40
2019,05,26,17,44,20.30
2019,05,26,17,45,20.30
2019,05,26,17,46,20.30
2019,05,26,17,47,20.20
2019,05,26,17,48,20.20
2019,05,26,17,49,20.20
2019,05,26,17,50,20.10
2019,05,26,17,51,19.90
2019,05,26,17,52,19.80
2019,05,26,17,53,19.70
2019,05,26,17,54,19.60
2019,05,26,17,55,19.40
2019,05,26,17,56,19.40
2019,05,26,17,57,19.30
2019,05,26,17,58,19.20
2019,05,26,17,59,19.10
2019,05,26,18,00,19.10
2019,05,26,18,01,19.10
2019,05,26,18,02,19.10
2019,05,26,18,03,18.90
2019,05,26,18,04,18.90
2019,05,26,18,05,18.90
2019,05,26,18,06,18.90
2019,05,26,18,07,18.90
2019,05,26,18,08,18.80
2019,05,26,18,09,18.80
2019,05,26,18,10,18.70
2019,05,26,18,11,18.70
2019,05,26,18,12,18.60
2019,05,26,18,13,18.50
2019,05,26,18,14,18.50
2019,05,26,18,15,18.50
2019,05,26,18,16,18.40
2019,05,26,18,17,18.40
2019,05,26,18,18,18.40
2019,05,26,18,19,18.40
2019,05,26,18,20,18.40
2019,05,26,18,21,18.40
2019,05,26,18,22,18.40
2019,05,26,18,23,18.40
2019,05,26,18,24,18.40
2019,05,26,18,25,18.40
2019,05,26,18,26,18.40
2019,05,26,18,27,18.40
2019,05,26,18,28,18.40
2019,05,26,18,29,18.40
2019,05,26,18,30,18.40
2019,05,26,18,32,18.40
2019,05,26,18,33,18.40
2019,05,26,18,34,18.40
2019,05,26,18,35,18.40
2019,05,26,18,36,18.40
2019,05,26,18,37,18.40
2019,05,26,18,38,18.40
2019,05,26,18,39,18.40
2019,05,26,18,40,18.40
2019,05,26,18,41,18.40
2019,05,26,18,42,18.40
2019,05,26,18,43,18.40
2019,05,26,18,44,18.30
2019,05,26,18,45,18.30
2019,05,26,18,46,18.30
2019,05,26,18,47,18.30
2019,05,26,18,48,18.30
2019,05,26,18,49,18.20
2019,05,26,18,50,18.20
2019,05,26,18,51,18.20
2019,05,26,18,52,18.20